Regional Weather Roundup
Issued by NWS

Home | Current Version | Previous Version | Graphics & Text | Print | Product List | Glossary On
Versions: 1 2 3 4 5 6 7 8 9 10 11 12 13 14 15 16 17 18 19 20 21 22 23 24 25 26 27 28 29 30 31 32 33 34 35 36 37 38 39 40 41 42 43 44 45 46 47 48 49 50
000
ASUS43 KMKX 200411
RWRWI

WISCONSIN REGIONAL WEATHER ROUNDUP
NATIONAL WEATHER SERVICE MILWAUKEE/SULLIVAN WI
1000 PM CST SUN NOV 19 2017

NOTE: "FAIR" INDICATES FEW OR NO CLOUDS BELOW 12,000 FEET WITH NO
SIGNIFICANT WEATHER AND/OR OBSTRUCTIONS TO VISIBILITY.

WIZ001-002-006>008-014>016-023>028-200500-
NORTHWEST WISCONSIN

CITY           SKY/WX    TMP DP  RH WIND       PRES   REMARKS
SUPERIOR ARPT  CLEAR     17  16  94 CALM      29.80F
ASHLAND        CLOUDY    21  16  81 CALM      29.82F
HAYWARD        CLOUDY    23  17  78 CALM      29.80F
SIREN          CLEAR     22  18  83 CALM      29.79F
CUMBERLAND     CLEAR     23  18  80 CALM      29.81S
RICE LAKE      CLEAR     24  18  78 CALM      29.83F
CHETEK         CLEAR     24  18  78 CALM      29.82F
LADYSMITH      CLEAR     24  18  78 CALM      29.84F
EAU CLAIRE     CLEAR     26  20  77 S5        29.84F WCI  20
MENOMONIE      CLOUDY    26  22  85 E3        29.84F
NEW RICHMOND   CLOUDY    29  24  80 S5        29.82S WCI  24
OSCEOLA        CLOUDY    26  22  85 CALM      29.84S
$$

WIZ003>005-009-010-017-018-200500-
NORTH CENTRAL WISCONSIN

CITY           SKY/WX    TMP DP  RH WIND       PRES   REMARKS
MANITOWISH WTR CLOUDY    15  15 100 CALM      29.80F
ARBOR VITAE    CLEAR     19  16  88 CALM      29.81F
WOODRUFF       CLEAR     19  16  88 CALM      29.81F
RHINELANDER    CLEAR    N/A N/A N/A S3        29.83S
EAGLE RIVER    CLOUDY    14  13  98 CALM      29.80F
LAND O LAKES   CLOUDY    14  13  92 CALM      29.82F
PHILLIPS       CLEAR     23  16  75 S3        29.81F
TOMAHAWK       CLEAR     18  15  88 CALM      29.83F
MEDFORD        CLEAR     22  17  81 S6        29.82F WCI  14
MERRILL        CLEAR     24  17  72 SW5       29.85F WCI  19
$$

WIZ029-030-035-036-043>047-200500-
CENTRAL WISCONSIN

CITY           SKY/WX    TMP DP  RH WIND       PRES   REMARKS
WAUSAU         CLOUDY    25  16  68 SE5       29.85F WCI  19
MOSINEE        CLEAR     23  18  80 S7        29.87F WCI  15
MARSHFIELD     CLEAR     24  16  71 SW6       29.85F WCI  17
STEVENS POINT  PTCLDY    22  16  77 SW5       29.89F WCI  16
WAUPACA        PTCLDY    27  19  70 S5        29.92F WCI  22
WAUTOMA        PTCLDY    23  18  81 S3        29.93F
WISC RAPIDS    CLEAR     25  18  74 SW6       29.90F WCI  18
CAMP DOUGLAS   CLEAR    N/A N/A N/A SW6       29.92F
$$

WIZ011>013-019>022-031-037>040-048>050-200500-
NORTHEAST WISCONSIN

CITY           SKY/WX    TMP DP  RH WIND       PRES   REMARKS
ANTIGO         CLEAR     21  17  84 S3        29.85F
SHAWANO        CLEAR     28  17  63 CALM      29.90F
OCONTO         MOCLDY    27  16  63 SW3       29.92S
STURGEON BAY   CLOUDY    30  19  63 SW8       29.92F WCI  22
GREEN BAY      CLOUDY    30  21  69 SW7       29.92F WCI  23
MANITOWOC      CLOUDY    30  20  66 SW5       29.95F WCI  25
APPLETON       PTCLDY    27  16  63 SW9       29.91F WCI  17
CLINTONVILLE   CLEAR     25  16  68 S6        29.90F WCI  18
OSHKOSH        CLEAR     27  20  75 S7        29.93F WCI  19
$$

WIZ032>034-041-042-053>061-200500-
SOUTHWEST WISCONSIN

CITY           SKY/WX    TMP DP  RH WIND       PRES   REMARKS
LA CROSSE      CLEAR     35  25  66 SE10      29.91F WCI  27
SPARTA         CLEAR     31  24  73 S3        29.92F
VIROQUA        CLEAR     30  25  81 S9        29.92S WCI  22
BOSCOBEL       CLOUDY    31  22  69 SW6       29.97F WCI  25
PRAIRIE DU CHI CLOUDY    34  22  62 CALM      29.96F
PLATTEVILLE    CLOUDY    29  24  81 S9        29.99S WCI  21
$$

WIZ056-057-062-063-064-067-068-200500-
SOUTH CENTRAL WISCONSIN

CITY           SKY/WX    TMP DP  RH WIND       PRES   REMARKS
REEDSBURG      CLEAR     30  21  69 SW3       29.94S
BARABOO/DELLS  CLEAR     30  21  68 SW9       29.93F WCI  22
LONE ROCK      CLEAR     25  20  81 NE3       29.97F
MINERAL POINT  CLOUDY    30  27  86 SW8       29.97S WCI  23
MADISON        PTCLDY    31  21  66 SW10G18   29.97S WCI  22
MIDDLETON      CLEAR     32  22  66 SW12      29.97S WCI  23
WATERTOWN      CLOUDY    28  21  77 SW8       29.98S WCI  19
MONROE         CLEAR     28  23  80 SW17      29.98S WCI  16
JANESVILLE     CLEAR     28  23  80 SW7       30.01S WCI  21
$$

WIZ051-052-058>065-066-070>072-200500-
SOUTHEAST WISCONSIN

CITY           SKY/WX    TMP DP  RH WIND       PRES   REMARKS
MILWAUKEE      MOCLDY    30  20  66 SW12      30.00S WCI  20
WAUKESHA       PTCLDY    28  19  69 SW6       30.00S WCI  22
MILWAUKEE/TIMM PTCLDY    28  18  64 SW7       30.00F WCI  21
RACINE         CLEAR     30  20  66 SW13G22   30.02F WCI  20
BURLINGTON     CLEAR     31  25  80 SW8       30.01S WCI  23
KENOSHA        CLEAR     29  19  66 SW14      30.02F WCI  18
FOND DU LAC    CLEAR     29  19  66 SW12      29.94F WCI  19
SHEBOYGAN      CLEAR     28  20  71 SW8       29.95F WCI  20
WEST BEND      CLEAR     28  19  69 SW6       29.97S WCI  22
JUNEAU         PTCLDY    27  20  75 S10       29.97S WCI  17
$$

LSZ147-162-200500-
LAKE SUPERIOR

STATION/POSITION TIME  TEMP    WIND        PRES    WAVE
                       AIR SEA DIR/SP/G            HT/PER
                 (UTC) (F)     (DEG/KT/KT) (MB)    (FT/S)
DEVILS ISLAND    0400   29     180/  5/  6 1010.8F
SAXON HARBOR     0340   22     210/  2/  3 1009.8F
$$

LMZ867-665-643>646-200500-
LAKE MICHIGAN

STATION/POSITION TIME  TEMP    WIND        PRES    WAVE
                       AIR SEA DIR/SP/G            HT/PER
                 (UTC) (F)     (DEG/KT/KT) (MB)    (FT/S)
N MID LAKE BUOY  0350   33 48  260/ 19/ 23 1013.3F   3/ 4
NORTHPORT PIER   0340   32     260/  7/ 13 1012.5F
KEWAUNEE LAKESHO 0342   31     250/  5/  7 1012.8F
SHEBOYGAN LAKESH 0400   30     220/ 11/ 12 1015.1F
PORT WASHINGTON  0330   30     250/  6/ 10 1016.3S
MILWAUKEE LAKESH 0350   32     240/ 15/ 18   N/A
S MID LAKE BUOY  0250   36 49  290/ 19/ 23 1017.1F   5/ 5
KENOSHA   LAKESH 0400   32     250/ 13/ 20 1016.6
$$

TC  - TEMPERATURE IN CELSIUS
VSB - VISIBILITY IN STATUTE MILES
WCI - WIND CHILL INDEX
HX  - HEAT INDEX




USA.gov is the U.S. government's official web portal to all federal, state and local government web resources and services.